FW1299 Weather Reports


Display with metric or nautical units.
time (UTC)temp
F
wind
direction
speed
MPH
gust
MPH
rain 1hr
in
rain 24hr
in
rain mn
in
humidity
%
barometer
mb
20260505010855 62 228 0.0 1.0 0.00 0.00 0.00 56 1010.4
20260505004852 64 328 0.0 1.0 0.00 0.00 0.00 52 1010.3
20260505003851 65 143 0.0 1.0 0.00 0.00 0.00 51 1010.2
20260505002853 65 182 0.0 1.0 0.00 0.00 0.00 50 1009.9
20260505001853 65 158 0.0 2.0 0.00 0.00 0.00 50 1009.9
20260504234851 68 235 0.0 4.0 0.00 0.00 0.00 46 1009.4
20260504233846 68 194 1.0 4.0 0.00 0.00 0.00 46 1009.3
20260504232843 69 239 1.0 5.0 0.00 0.00 0.00 45 1009.3
20260504231842 70 212 2.0 6.0 0.00 0.00 0.00 43 1009.3
20260504230841 70 224 1.0 7.0 0.00 0.00 0.00 43 1009.2
20260504225841 71 152 2.0 7.0 0.00 0.00 0.00 42 1009.1
20260504224838 72 194 1.0 6.0 0.00 0.00 0.00 41 1009.1
20260504223835 73 246 2.0 6.0 0.00 0.00 0.00 42 1009.3
20260504222835 73 271 3.0 8.0 0.00 0.00 0.00 41 1009.1
20260504220835 74 142 1.0 6.0 0.00 0.00 0.00 40 1009.2
20260504215835 74 280 2.0 6.0 0.00 0.00 0.00 40 1009.3
20260504214835 73 284 4.0 8.0 0.00 0.00 0.00 40 1009.4
20260504213835 74 214 2.0 9.0 0.00 0.00 0.00 41 1009.4
20260504212835 74 127 3.0 8.0 0.00 0.00 0.00 38 1009.4
20260504211836 74 223 3.0 10.0 0.00 0.00 0.00 39 1009.5
20260504210830 74 195 5.0 11.0 0.00 0.00 0.00 40 1009.6
20260504205829 74 250 3.0 8.0 0.00 0.00 0.00 39 1009.6
20260504204832 74 185 3.0 9.0 0.00 0.00 0.00 40 1009.5
20260504201825 74 274 2.0 11.0 0.00 0.00 0.00 40 1009.5
20260504200821 74 134 4.0 13.0 0.00 0.00 0.00 41 1009.6
20260504195820 74 221 4.0 12.0 0.00 0.00 0.00 41 1009.6
20260504194819 74 186 4.0 11.0 0.00 0.00 0.00 41 1009.6
20260504193820 73 217 4.0 12.0 0.00 0.00 0.00 41 1009.7
20260504192820 73 199 5.0 12.0 0.00 0.00 0.00 42 1009.7
20260504191818 73 163 4.0 11.0 0.00 0.00 0.00 40 1010.0
20260504185819 72 262 5.0 11.0 0.00 0.00 0.00 45 1010.4
20260504184816 73 148 4.0 11.0 0.00 0.00 0.00 41 1010.6
20260504182818 73 195 4.0 12.0 0.00 0.00 0.00 41 1010.9
20260504181818 72 253 5.0 15.0 0.00 0.00 0.00 43 1011.1
20260504180819 72 209 4.0 13.0 0.00 0.00 0.00 41 1011.2
20260504175817 72 210 5.0 12.0 0.00 0.00 0.00 42 1011.3
20260504174815 71 262 5.0 15.0 0.00 0.00 0.00 41 1011.5
20260504172822 71 226 4.0 13.0 0.00 0.00 0.00 46 1011.5
20260504171816 71 239 3.0 8.0 0.00 0.00 0.00 42 1011.6
20260504170816 70 238 5.0 14.0 0.00 0.00 0.00 45 1011.7
20260504150813 67 219 3.0 9.0 0.00 0.00 0.00 51 1013.1
20260504130808 60 294 2.0 6.0 0.00 0.00 0.00 66 1013.8
20260504081750 46 142 0.0 1.0 0.00 0.00 0.00 67 1013.9
20260504080751 46 210 0.0 2.0 0.00 0.00 0.00 67 1013.9
20260504050732 49 231 1.0 5.0 0.00 0.00 0.00 61 1013.6
20260504045732 49 212 0.0 2.0 0.00 0.00 0.00 61 1013.4
20260504044731 49 207 0.0 0.0 0.00 0.00 0.00 60 1013.4
20260504043731 49 158 0.0 0.0 0.00 0.00 0.00 60 1013.4
20260504041730 49 248 0.0 0.0 0.00 0.00 0.00 60 1013.2
20260504033725 49 205 0.0 1.0 0.00 0.00 0.00 59 1013.2
20260504032725 50 224 0.0 0.0 0.00 0.00 0.00 58 1013.1
20260504031727 49 201 0.0 2.0 0.00 0.00 0.00 60 1012.9
20260504030721 49 249 0.0 2.0 0.00 0.00 0.00 59 1012.8
20260504024720 48 270 0.0 0.0 0.00 0.00 0.00 60 1012.9
20260504023720 49 245 0.0 2.0 0.00 0.00 0.00 60 1013.0
20260504022720 49 228 0.0 0.0 0.00 0.00 0.00 60 1013.0
20260504021720 49 246 0.0 2.0 0.00 0.00 0.00 59 1013.0
20260504020719 49 224 0.0 0.0 0.00 0.00 0.00 59 1013.0
20260504015721 49 261 0.0 1.0 0.00 0.00 0.00 59 1013.0
20260504014720 49 258 0.0 1.0 0.00 0.00 0.00 59 1013.1
20260504013719 48 238 0.0 0.0 0.00 0.00 0.00 59 1012.9
20260504012716 48 238 0.0 1.0 0.00 0.00 0.00 59 1012.7
20260504011712 48 236 0.0 0.0 0.00 0.00 0.00 60 1012.6